Location: Aulnoy
(48.8410°N, 3.0967°E)
Time: 09:33:53
(UTC+00:00)

NOSS 0 Rocket - Pass Details

Date: 09 February 2023
Orbit: 935 x 955 km, 70.0° (Epoch: 23 March)

Event Time Altitude Azimuth Distance (km) Brightness Sun altitude
Rises 19:00:44 0° 200° (SSW) 3,610 7.2 -20.6°
Reaches altitude 10° 19:03:16 10° 199° (SSW) 2,671 6.5 -21.0°
Maximum altitude 19:09:26 73° 116° (ESE) 1,000 3.8 -22.0°
Enters shadow 19:13:26 24° 36° (NE) 1,894 5.2 -22.7°
